EW4538 Weather Reports


Display with metric or nautical units.
time (UTC)temp
F
wind
direction
speed
MPH
gust
MPH
rain 1hr
in
rain 24hr
in
rain mn
in
humidity
%
barometer
mb
20201026092806 72 106 2.0 12.0 0.00 0.01 0.01 91 1012.3
20201026092307 72 107 2.0 12.0 0.00 0.01 0.01 91 1012.2
20201026091810 72 77 3.0 8.0 0.00 0.01 0.01 91 1012.3
20201026091310 72 64 2.0 8.0 0.00 0.01 0.01 91 1012.3
20201026090808 72 105 2.0 6.0 0.00 0.01 0.01 91 1012.3
20201026090313 72 113 1.0 6.0 0.01 0.01 0.01 91 1012.4
20201026085808 72 86 3.0 6.0 0.01 0.01 0.01 91 1012.4
20201026085311 72 82 2.0 6.0 0.01 0.01 0.01 91 1012.4
20201026084805 72 97 2.0 8.0 0.01 0.01 0.01 91 1012.4
20201026084307 72 80 3.0 8.0 0.01 0.01 0.01 91 1012.4
20201026083826 72 97 2.0 7.0 0.01 0.01 0.01 91 1012.4
20201026083305 72 70 3.0 7.0 0.01 0.01 0.01 91 1012.4
20201026082806 72 131 1.0 7.0 0.01 0.01 0.01 91 1012.4
20201026082312 72 103 2.0 6.0 0.01 0.01 0.01 91 1012.3
20201026081807 72 94 3.0 6.0 0.01 0.01 0.01 91 1012.3
20201026081310 72 134 1.0 6.0 0.01 0.01 0.01 91 1012.3
20201026080811 72 77 2.0 6.0 0.01 0.01 0.01 91 1012.3
20201026080308 72 84 2.0 7.0 0.00 0.00 0.00 91 1012.3
20201026075806 72 101 4.0 7.0 0.00 0.00 0.00 91 1012.3
20201026075305 72 76 2.0 5.0 0.00 0.00 0.00 91 1012.3
20201026074806 72 198 2.0 6.0 0.00 0.00 0.00 90 1012.3
20201026074305 72 78 2.0 6.0 0.00 0.00 0.00 90 1012.3
20201026073805 72 88 3.0 6.0 0.00 0.00 0.00 90 1012.3
20201026073309 72 133 1.0 6.0 0.00 0.00 0.00 90 1012.3
20201026072805 72 92 3.0 13.0 0.00 0.00 0.00 90 1012.3
20201026072305 72 86 2.0 13.0 0.00 0.00 0.00 90 1012.3
20201026071805 72 98 2.0 6.0 0.00 0.00 0.00 90 1012.3
20201026071308 73 101 3.0 10.0 0.00 0.00 0.00 90 1012.4
20201026070807 73 115 2.0 10.0 0.00 0.00 0.00 89 1012.3
20201026070305 73 104 4.0 10.0 0.00 0.00 0.00 90 1012.3
20201026065807 73 102 2.0 5.0 0.00 0.00 0.00 89 1012.3
20201026065307 73 160 2.0 6.0 0.00 0.00 0.00 89 1012.3
20201026064805 73 89 1.0 6.0 0.00 0.00 0.00 89 1012.3
20201026064305 73 99 3.0 8.0 0.00 0.00 0.00 89 1012.3
20201026063807 73 93 5.0 8.0 0.00 0.00 0.00 88 1012.3
20201026063305 73 101 2.0 6.0 0.00 0.00 0.00 88 1012.4
20201026062807 73 103 2.0 6.0 0.00 0.00 0.00 88 1012.5
20201026062306 73 75 2.0 6.0 0.00 0.00 0.00 88 1012.4
20201026061806 73 106 3.0 7.0 0.00 0.00 0.00 87 1012.4
20201026061307 73 96 2.0 7.0 0.00 0.00 0.00 87 1012.4
20201026060806 74 111 2.0 7.0 0.00 0.00 0.00 86 1012.5
20201026060306 74 92 3.0 7.0 0.00 0.00 0.00 86 1012.6
20201026055810 74 85 2.0 10.0 0.00 0.00 0.00 85 1012.6
20201026055312 74 89 3.0 10.0 0.00 0.00 0.00 84 1012.6
20201026054805 74 92 4.0 10.0 0.00 0.00 0.00 84 1012.6
20201026054306 75 80 1.0 7.0 0.00 0.00 0.00 83 1012.6
20201026053805 75 82 3.0 7.0 0.00 0.00 0.00 83 1012.6
20201026053307 75 98 1.0 7.0 0.00 0.00 0.00 83 1012.7
20201026052805 75 68 3.0 6.0 0.00 0.00 0.00 83 1012.7
20201026052305 75 103 4.0 6.0 0.00 0.00 0.00 83 1012.7
20201026051810 75 83 2.0 6.0 0.00 0.00 0.00 82 1012.7
20201026051308 75 43 1.0 8.0 0.00 0.00 0.00 82 1012.7
20201026050818 75 89 2.0 10.0 0.00 0.00 0.00 82 1012.7
20201026050309 75 82 2.0 10.0 0.00 0.00 0.00 82 1012.7
20201026045805 75 138 2.0 8.0 0.00 0.00 0.00 82 1012.7
20201026045307 75 195 2.0 8.0 0.00 0.00 0.00 81 1012.7
20201026044806 75 88 2.0 7.0 0.00 0.00 0.00 81 1012.7
20201026044305 75 101 2.0 17.0 0.00 0.00 0.00 81 1012.7
20201026043809 75 102 6.0 17.0 0.00 0.00 0.00 81 1012.6
20201026043305 75 89 4.0 10.0 0.00 0.00 0.00 81 1012.6
20201026042805 75 112 2.0 10.0 0.00 0.00 0.00 81 1012.7
20201026042312 75 112 2.0 10.0 0.00 0.00 0.00 81 1012.6
20201026041805 75 209 4.0 10.0 0.00 0.00 0.00 81 1012.5
20201026041305 75 75 2.0 8.0 0.00 0.00 0.00 81 1012.6
20201026040809 75 90 1.0 8.0 0.00 0.00 0.00 81 1012.5
20201026040306 75 101 3.0 10.0 0.00 0.00 0.00 80 1012.5
20201026035806 75 91 3.0 10.0 0.00 0.00 0.00 80 1012.5
20201026035310 75 103 3.0 12.0 0.00 0.00 0.00 80 1012.3
20201026034806 75 230 1.0 12.0 0.00 0.00 0.00 80 1012.3
20201026034305 76 141 3.0 10.0 0.00 0.00 0.00 80 1012.2
20201026033805 76 95 3.0 14.0 0.00 0.00 0.00 80 1012.1
20201026033310 76 48 5.0 14.0 0.00 0.00 0.00 80 1012.1
20201026032807 76 42 2.0 14.0 0.00 0.00 0.00 79 1012.1
20201026032306 76 97 2.0 7.0 0.00 0.00 0.00 79 1012.1
20201026031813 76 94 3.0 6.0 0.00 0.00 0.00 79 1012.1
20201026031311 76 149 2.0 8.0 0.00 0.00 0.00 79 1012.0
20201026030807 76 128 4.0 8.0 0.00 0.00 0.00 79 1012.0
20201026030305 76 83 4.0 10.0 0.00 0.00 0.00 78 1012.0
20201026025805 76 81 3.0 10.0 0.00 0.00 0.00 78 1012.0
20201026025306 76 132 1.0 8.0 0.00 0.00 0.00 78 1012.0
20201026024806 76 87 4.0 8.0 0.00 0.00 0.00 77 1011.9
20201026024305 77 76 2.0 7.0 0.00 0.00 0.00 77 1011.9
20201026023806 77 124 4.0 7.0 0.00 0.00 0.00 77 1011.9
20201026023308 77 209 4.0 7.0 0.00 0.00 0.00 76 1011.9
20201026022806 77 123 2.0 10.0 0.00 0.00 0.00 76 1011.8
20201026022306 77 114 3.0 10.0 0.00 0.00 0.00 75 1011.8
20201026021808 77 96 3.0 10.0 0.00 0.00 0.00 75 1011.9
20201026021309 77 69 2.0 10.0 0.00 0.00 0.00 75 1011.8
20201026020809 77 95 4.0 10.0 0.00 0.00 0.00 75 1011.7
20201026020305 77 104 3.0 8.0 0.00 0.00 0.00 74 1011.7
20201026015809 77 92 2.0 8.0 0.00 0.00 0.00 74 1011.7
20201026015311 78 93 3.0 8.0 0.00 0.00 0.00 74 1011.7
20201026014806 78 153 3.0 8.0 0.00 0.00 0.00 74 1011.7
20201026014305 78 96 2.0 8.0 0.00 0.00 0.00 73 1011.6
20201026013806 78 98 3.0 10.0 0.00 0.00 0.00 73 1011.6
20201026013305 78 96 5.0 10.0 0.00 0.00 0.00 72 1011.5
20201026012805 78 189 3.0 10.0 0.00 0.00 0.00 72 1011.4
20201026012307 78 86 4.0 10.0 0.00 0.00 0.00 71 1011.4
20201026011804 79 114 5.0 10.0 0.00 0.00 0.00 70 1011.3
20201026011305 79 97 3.0 12.0 0.00 0.00 0.00 70 1011.2
20201026010806 79 125 4.0 12.0 0.00 0.00 0.00 69 1011.1
20201026010307 79 100 2.0 7.0 0.00 0.00 0.00 68 1011.1
20201026005807 79 212 2.0 10.0 0.00 0.00 0.00 68 1011.0
20201026005308 79 98 2.0 10.0 0.00 0.00 0.00 67 1011.0
20201026004805 79 90 3.0 10.0 0.00 0.00 0.00 66 1010.9
20201026004304 80 94 2.0 8.0 0.00 0.00 0.00 66 1010.8
20201026003806 80 107 3.0 8.0 0.00 0.00 0.00 65 1010.8
20201026003308 80 109 1.0 6.0 0.00 0.00 0.00 65 1010.8
20201026002807 80 193 2.0 6.0 0.00 0.00 0.00 65 1010.7
20201026002306 80 257 2.0 6.0 0.00 0.00 0.00 65 1010.7
20201026001812 80 218 2.0 10.0 0.00 0.00 0.00 64 1010.6
20201026001305 80 213 3.0 10.0 0.00 0.00 0.00 64 1010.6
20201026000805 80 103 2.0 6.0 0.00 0.00 0.00 63 1010.5
20201026000305 81 239 2.0 10.0 0.00 0.00 0.00 63 1010.5
20201025235805 81 214 3.0 10.0 0.00 0.00 0.00 62 1010.6
20201025235306 81 115 3.0 10.0 0.00 0.00 0.00 62 1010.5
20201025234809 81 89 1.0 8.0 0.00 0.00 0.00 61 1010.5
20201025234306 81 82 2.0 8.0 0.00 0.00 0.00 61 1010.4
20201025233811 81 91 3.0 8.0 0.00 0.00 0.00 61 1010.3
20201025233304 82 99 3.0 6.0 0.00 0.00 0.00 60 1010.3
20201025232809 82 238 2.0 10.0 0.00 0.00 0.00 59 1010.2
20201025232317 82 333 1.0 10.0 0.00 0.00 0.00 59 1010.2
20201025231806 82 194 3.0 10.0 0.00 0.00 0.00 59 1010.2
20201025231305 83 103 3.0 7.0 0.00 0.00 0.00 58 1010.1
20201025230808 83 144 2.0 10.0 0.00 0.00 0.00 57 1010.0
20201025230307 83 195 2.0 10.0 0.00 0.00 0.00 57 1009.9
20201025225824 83 297 2.0 12.0 0.00 0.00 0.00 57 1009.9
20201025225307 84 95 4.0 12.0 0.00 0.00 0.00 57 1009.9
20201025224805 84 104 5.0 12.0 0.00 0.00 0.00 56 1009.9
20201025224305 84 83 5.0 10.0 0.00 0.00 0.00 56 1009.8
20201025223805 84 173 3.0 12.0 0.00 0.00 0.00 56 1009.7
20201025223311 84 198 5.0 12.0 0.00 0.00 0.00 56 1009.7
20201025222806 84 142 3.0 15.0 0.00 0.00 0.00 56 1009.8
20201025222305 84 177 6.0 15.0 0.00 0.00 0.00 56 1009.9
20201025221806 84 180 3.0 15.0 0.00 0.00 0.00 56 1009.9
20201025221306 84 90 2.0 12.0 0.00 0.00 0.00 56 1009.8
20201025220805 84 170 4.0 12.0 0.00 0.00 0.00 56 1009.8
20201025220306 84 196 4.0 12.0 0.00 0.00 0.00 56 1009.9
20201025215804 84 151 4.0 13.0 0.00 0.00 0.00 56 1009.9
20201025215305 84 166 3.0 13.0 0.00 0.00 0.00 55 1009.9
20201025214805 85 198 4.0 13.0 0.00 0.00 0.00 55 1010.0
20201025214304 85 233 2.0 12.0 0.00 0.00 0.00 55 1010.1
20201025213805 85 162 4.0 12.0 0.00 0.00 0.00 55 1010.1
20201025213306 85 190 4.0 7.0 0.00 0.00 0.00 56 1010.1
20201025212810 84 235 2.0 8.0 0.00 0.00 0.00 57 1010.1
20201025212305 84 111 2.0 14.0 0.00 0.00 0.00 57 1010.1
20201025211805 84 271 5.0 14.0 0.00 0.00 0.00 57 1010.2
20201025211305 84 220 5.0 12.0 0.00 0.00 0.00 57 1010.2
20201025210807 84 214 3.0 8.0 0.00 0.00 0.00 58 1010.2
20201025210307 84 242 3.0 8.0 0.00 0.00 0.00 58 1010.3
20201025205805 84 210 2.0 6.0 0.00 0.00 0.00 58 1010.4
20201025205309 84 299 1.0 5.0 0.00 0.00 0.00 59 1010.5
20201025204806 83 69 1.0 6.0 0.00 0.00 0.00 61 1010.4
20201025204305 82 162 1.0 10.0 0.00 0.00 0.00 61 1010.5
20201025203805 82 243 3.0 10.0 0.00 0.00 0.00 61 1010.6
20201025203305 81 115 2.0 7.0 0.00 0.00 0.00 62 1010.6
20201025202808 81 161 4.0 8.0 0.00 0.00 0.00 63 1010.8
20201025202306 80 221 1.0 8.0 0.00 0.00 0.00 64 1011.0
20201025201804 80 234 3.0 8.0 0.00 0.00 0.00 64 1011.2
20201025201304 80 189 5.0 10.0 0.00 0.00 0.00 63 1011.2
20201025200806 80 276 3.0 12.0 0.00 0.00 0.00 64 1011.1
20201025200305 80 232 4.0 12.0 0.00 0.00 0.00 64 1011.2
20201025195805 80 181 5.0 12.0 0.00 0.00 0.00 64 1011.3
20201025195306 80 219 5.0 12.0 0.00 0.00 0.00 64 1011.4
20201025194804 79 201 2.0 8.0 0.00 0.00 0.00 65 1011.4
20201025194310 79 196 4.0 8.0 0.00 0.00 0.00 66 1011.5
20201025193805 78 159 2.0 7.0 0.00 0.00 0.00 67 1011.7
20201025193305 78 236 2.0 8.0 0.00 0.00 0.00 68 1011.8
20201025192807 78 231 3.0 13.0 0.00 0.00 0.00 68 1011.9
20201025192306 78 219 6.0 13.0 0.00 0.00 0.00 67 1012.0
20201025191814 78 227 2.0 8.0 0.00 0.00 0.00 68 1012.1
20201025191311 77 139 2.0 8.0 0.00 0.00 0.00 69 1012.2
20201025190810 77 177 3.0 10.0 0.00 0.00 0.00 69 1012.3
20201025190307 76 229 4.0 10.0 0.00 0.00 0.00 69 1012.4
20201025185805 76 192 3.0 12.0 0.00 0.00 0.00 71 1012.5
20201025185307 75 194 3.0 12.0 0.00 0.00 0.00 72 1012.7
20201025184807 74 213 2.0 10.0 0.00 0.00 0.00 73 1012.8
20201025184305 74 231 3.0 10.0 0.00 0.00 0.00 73 1012.9
20201025183805 73 211 5.0 10.0 0.00 0.00 0.00 73 1013.0
20201025183304 73 61 3.0 8.0 0.00 0.00 0.00 74 1013.2
20201025182806 72 226 3.0 8.0 0.00 0.00 0.00 74 1013.3
20201025182307 72 237 1.0 6.0 0.00 0.00 0.00 75 1013.4
20201025181805 71 262 3.0 6.0 0.00 0.00 0.00 74 1013.7
20201025181305 71 248 2.0 6.0 0.00 0.00 0.00 75 1013.7
20201025180808 71 227 3.0 6.0 0.00 0.00 0.00 75 1013.8
20201025180305 71 226 3.0 6.0 0.00 0.00 0.00 74 1013.8
20201025175805 71 202 2.0 12.0 0.00 0.00 0.00 75 1013.9
20201025175309 71 237 5.0 12.0 0.00 0.00 0.00 75 1014.0
20201025174805 71 206 1.0 5.0 0.00 0.00 0.00 75 1014.1
20201025174312 70 153 2.0 5.0 0.00 0.00 0.00 76 1014.1
20201025173806 70 239 1.0 5.0 0.00 0.00 0.00 75 1014.2
20201025173304 70 189 1.0 6.0 0.00 0.00 0.00 75 1014.3
20201025172810 69 244 3.0 8.0 0.00 0.00 0.00 75 1014.4
20201025172307 69 279 2.0 8.0 0.00 0.00 0.00 75 1014.5
20201025171820 69 216 2.0 7.0 0.00 0.00 0.00 75 1014.6
20201025171339 69 121 3.0 7.0 0.00 0.00 0.00 75 1014.8
20201025170814 68 224 3.0 6.0 0.00 0.00 0.00 74 1014.8
20201025170451 68 253 1.0 6.0 0.00 0.00 0.00 75 1014.9
20201025165831 68 68 2.0 6.0 0.00 0.00 0.00 75 1015.0
20201025165309 68 226 2.0 6.0 0.00 0.00 0.00 74 1015.0
20201025164805 68 234 1.0 8.0 0.00 0.00 0.00 74 1015.0
20201025164311 67 219 3.0 8.0 0.00 0.00 0.00 74 1015.0
20201025163809 67 79 2.0 5.0 0.00 0.00 0.00 74 1015.0
20201025163310 67 179 2.0 7.0 0.00 0.00 0.00 74 1015.1
20201025162805 67 215 3.0 7.0 0.00 0.00 0.00 74 1015.1
20201025162309 67 227 2.0 7.0 0.00 0.00 0.00 75 1015.1
20201025161808 66 211 3.0 7.0 0.00 0.00 0.00 75 1015.2
20201025161307 66 151 1.0 5.0 0.00 0.00 0.00 75 1015.2
20201025160808 66 96 2.0 5.0 0.00 0.00 0.00 75 1015.3
20201025160309 66 148 2.0 6.0 0.00 0.00 0.00 76 1015.3
20201025155806 65 223 1.0 6.0 0.00 0.00 0.00 76 1015.3
20201025155306 65 111 1.0 2.0 0.00 0.00 0.00 76 1015.5
20201025154810 65 190 1.0 2.0 0.00 0.00 0.00 77 1015.5
20201025154304 64 200 1.0 5.0 0.00 0.00 0.00 77 1015.5
20201025153806 64 239 2.0 5.0 0.00 0.00 0.00 77 1015.6
20201025153309 64 237 2.0 6.0 0.00 0.00 0.00 77 1015.6
20201025152809 64 184 2.0 6.0 0.00 0.00 0.00 77 1015.7
20201025152306 63 246 2.0 5.0 0.00 0.00 0.00 77 1015.8
20201025151804 63 108 1.0 7.0 0.00 0.00 0.00 78 1015.7
20201025151304 63 214 0.0 7.0 0.00 0.00 0.00 78 1015.6
20201025150805 63 74 1.0 2.0 0.00 0.00 0.00 78 1015.6
20201025150304 62 74 1.0 2.0 0.00 0.00 0.00 78 1015.6
20201025145817 62 38 0.0 5.0 0.00 0.00 0.00 78 1015.6
20201025145307 62 218 2.0 5.0 0.00 0.00 0.00 78 1015.6
20201025144805 61 220 1.0 5.0 0.00 0.00 0.00 78 1015.8
20201025144304 61 214 1.0 5.0 0.00 0.00 0.00 78 1015.8
20201025143806 61 59 1.0 6.0 0.00 0.00 0.00 78 1015.8
20201025143304 61 229 1.0 6.0 0.00 0.00 0.00 78 1015.7
20201025142805 61 209 1.0 6.0 0.00 0.00 0.00 78 1015.7
20201025142305 60 214 1.0 6.0 0.00 0.00 0.00 78 1015.7
20201025141804 60 227 1.0 6.0 0.00 0.00 0.00 78 1015.6
20201025141311 60 209 1.0 5.0 0.00 0.00 0.00 79 1015.6
20201025140807 60 211 1.0 5.0 0.00 0.00 0.00 78 1015.6
20201025140304 60 178 1.0 5.0 0.00 0.00 0.00 78 1015.5
20201025135805 60 93 1.0 5.0 0.00 0.00 0.00 78 1015.6
20201025135304 60 215 0.0 5.0 0.00 0.00 0.00 78 1015.7
20201025134806 59 215 2.0 5.0 0.00 0.00 0.00 78 1015.6
20201025134305 59 251 0.0 2.0 0.00 0.00 0.00 79 1015.5
20201025133805 59 251 1.0 5.0 0.00 0.00 0.00 78 1015.5
20201025133307 59 222 1.0 5.0 0.00 0.00 0.00 78 1015.6
20201025132808 59 222 1.0 6.0 0.00 0.00 0.00 78 1015.6
20201025132306 59 218 2.0 6.0 0.00 0.00 0.00 78 1015.6
20201025131808 59 256 1.0 6.0 0.00 0.00 0.00 78 1015.5
20201025131313 59 241 1.0 6.0 0.00 0.00 0.00 78 1015.5
20201025130807 59 219 1.0 6.0 0.00 0.00 0.00 78 1015.5
20201025130306 59 235 1.0 6.0 0.00 0.00 0.00 78 1015.5
20201025125804 59 125 0.0 2.0 0.00 0.00 0.00 78 1015.5
20201025125314 59 230 1.0 2.0 0.00 0.00 0.00 78 1015.4
20201025124804 59 210 0.0 5.0 0.00 0.00 0.00 78 1015.3
20201025124304 59 209 1.0 5.0 0.00 0.00 0.00 78 1015.3
20201025123804 59 228 2.0 5.0 0.00 0.00 0.00 78 1015.3
20201025123304 58 313 0.0 2.0 0.00 0.00 0.00 78 1015.3
20201025122805 58 313 1.0 2.0 0.00 0.00 0.00 78 1015.4
20201025122308 58 315 0.0 2.0 0.00 0.00 0.00 79 1015.3
20201025121810 58 224 0.0 1.0 0.00 0.00 0.00 79 1015.2
20201025121306 58 224 0.0 2.0 0.00 0.00 0.00 79 1015.1
20201025120804 58 224 0.0 2.0 0.00 0.00 0.00 80 1015.1
20201025120304 57 224 1.0 2.0 0.00 0.00 0.00 80 1015.1
20201025115817 57 225 0.0 2.0 0.00 0.00 0.00 81 1015.2
20201025115311 57 181 1.0 5.0 0.00 0.00 0.00 81 1015.1
20201025114804 57 211 0.0 5.0 0.00 0.00 0.00 82 1015.1
20201025114305 56 194 1.0 2.0 0.00 0.00 0.00 83 1015.1
20201025113805 56 171 1.0 1.0 0.00 0.00 0.00 83 1015.1
20201025113304 55 171 0.0 1.0 0.00 0.00 0.00 83 1015.1
20201025112804 55 150 0.0 1.0 0.00 0.00 0.00 83 1015.1
20201025112306 55 150 0.0 1.0 0.00 0.00 0.00 83 1015.1
20201025111804 55 150 0.0 1.0 0.00 0.00 0.00 83 1015.1
20201025111311 55 150 0.0 0.0 0.00 0.00 0.00 82 1015.1
20201025110804 55 150 0.0 0.0 0.00 0.00 0.00 82 1015.1
20201025110308 55 150 0.0 0.0 0.00 0.00 0.00 82 1015.0
20201025105804 55 150 0.0 1.0 0.00 0.00 0.00 81 1015.0
20201025105305 55 150 0.0 1.0 0.00 0.00 0.00 81 1014.9
20201025104804 55 150 0.0 0.0 0.00 0.00 0.00 81 1014.9
20201025104307 55 150 0.0 0.0 0.00 0.00 0.00 81 1014.8
20201025103803 55 150 0.0 1.0 0.00 0.00 0.00 81 1014.7
20201025103306 55 150 0.0 1.0 0.00 0.00 0.00 81 1014.7
20201025102806 55 150 0.0 1.0 0.00 0.00 0.00 81 1014.6
20201025102305 55 150 0.0 1.0 0.00 0.00 0.00 80 1014.6
20201025101804 55 150 0.0 0.0 0.00 0.00 0.00 80 1014.6
20201025101307 55 150 0.0 0.0 0.00 0.00 0.00 80 1014.6
20201025100804 55 150 0.0 0.0 0.00 0.00 0.00 79 1014.6
20201025100308 55 150 0.0 0.0 0.00 0.00 0.00 79 1014.6
20201025095806 55 150 0.0 1.0 0.00 0.00 0.00 79 1014.6
20201025095305 55 150 0.0 1.0 0.00 0.00 0.00 79 1014.5
20201025094804 55 150 0.0 1.0 0.00 0.00 0.00 79 1014.5
20201025094307 55 150 0.0 1.0 0.00 0.00 0.00 79 1014.5
20201025093806 56 150 0.0 1.0 0.00 0.00 0.00 78 1014.4
20201025093303 56 150 0.0 0.0 0.00 0.00 0.00 78 1014.4